DW4509 Weather Reports


Display with metric or nautical units.
time (UTC)temp
F
wind
direction
speed
MPH
gust
MPH
rain 1hr
in
rain 24hr
in
rain mn
in
humidity
%
barometer
mb
20260906144459 72 222 0.0 6.0 0.00 0.00 0.00 60 1017.8
20260906142312 72 32 1.0 9.0 0.00 0.00 0.00 56 1017.9
20260906141301 73 273 0.0 7.0 0.00 0.00 0.00 56 1018.2
20260906135130 72 238 0.0 6.0 0.00 0.00 0.00 58 1018.2
20260906134100 72 246 0.0 6.0 0.00 0.00 0.00 59 1018.3
20260906133114 72 37 0.0 1.0 0.00 0.00 0.00 60 1018.5
20260906130945 71 272 0.0 3.0 0.00 0.00 0.00 65 1018.8
20260906130007 69 18 0.0 1.0 0.00 0.00 0.00 64 1019.0
20260906125003 69 13 0.0 2.0 0.00 0.00 0.00 65 1019.1
20260906123958 68 299 0.0 6.0 0.00 0.00 0.00 69 1019.3
20260906122937 68 250 0.0 0.0 0.00 0.00 0.00 71 1019.4
20260906121934 68 89 0.0 0.0 0.00 0.00 0.00 70 1019.4
20260906120937 67 108 0.0 0.0 0.00 0.00 0.00 67 1019.6
20260906115950 67 58 0.0 4.0 0.00 0.00 0.00 67 1019.8
20260906114923 67 19 0.0 2.0 0.00 0.00 0.00 68 1020.0
20260906113900 67 164 0.0 2.0 0.00 0.00 0.00 69 1020.1
20260906112826 68 270 0.0 0.0 0.00 0.00 0.00 69 1020.1
20260906111802 68 37 0.0 3.0 0.00 0.00 0.00 69 1020.2
20260906110812 68 353 0.0 4.0 0.00 0.00 0.00 70 1020.2
20260906105738 67 51 0.0 4.0 0.00 0.00 0.00 70 1020.4
20260906104748 67 232 0.0 0.0 0.00 0.00 0.00 72 1020.3
20260906103748 66 155 0.0 2.0 0.00 0.00 0.00 73 1020.6
20260906102745 65 75 0.0 4.0 0.00 0.00 0.00 75 1020.8
20260906101737 63 121 0.0 0.0 0.00 0.00 0.00 76 1020.9
20260906100722 63 148 0.0 0.0 0.00 0.00 0.00 78 1020.9
20260906095650 62 327 0.0 0.0 0.00 0.00 0.00 78 1021.0
20260906093632 61 27 0.0 0.0 0.00 0.00 0.00 80 1021.2
20260906092603 61 31 0.0 0.0 0.00 0.00 0.00 80 1021.3
20260906091545 60 26 0.0 0.0 0.00 0.00 0.00 81 1021.3
20260906090511 60 6 0.0 0.0 0.00 0.00 0.00 82 1021.5
20260906084413 60 340 0.0 0.0 0.00 0.00 0.00 82 1021.6
20260906082241 60 304 0.0 0.0 0.00 0.00 0.00 80 1021.5
20260906081305 60 18 0.0 0.0 0.00 0.00 0.00 82 1021.5
20260906080314 60 18 0.0 0.0 0.00 0.00 0.00 82 1021.5
20260906075244 59 18 0.0 0.0 0.00 0.00 0.00 82 1021.6
20260906074236 59 69 0.0 0.0 0.00 0.00 0.00 84 1021.5
20260906072104 58 70 0.0 0.0 0.00 0.00 0.00 85 1021.6
20260906065919 59 74 0.0 0.0 0.00 0.00 0.00 86 1021.8
20260906064914 58 68 0.0 0.0 0.00 0.00 0.00 87 1021.7
20260906063911 58 69 0.0 0.0 0.00 0.00 0.00 88 1021.8
20260906062917 57 69 0.0 0.0 0.00 0.00 0.00 88 1021.9
20260906061853 56 69 0.0 0.0 0.00 0.00 0.00 90 1021.8
20260906060848 54 69 0.0 0.0 0.00 0.00 0.00 90 1021.9
20260906055825 53 69 0.0 0.0 0.00 0.00 0.00 90 1022.1
20260906053646 53 70 0.0 0.0 0.00 0.00 0.00 89 1022.2
20260906052632 53 70 0.0 0.0 0.00 0.00 0.00 89 1022.2
20260906051632 53 70 0.0 0.0 0.00 0.00 0.00 89 1022.2
20260906050651 53 70 0.0 0.0 0.00 0.00 0.00 90 1022.2
20260906045630 53 70 0.0 0.0 0.00 0.00 0.00 89 1022.3
20260906044618 53 70 0.0 0.0 0.00 0.00 0.00 89 1022.5
20260906043641 53 70 0.0 0.0 0.00 0.00 0.00 90 1022.5
20260906042701 53 70 0.0 0.0 0.00 0.00 0.00 90 1022.5
20260906041650 53 70 0.0 0.0 0.00 0.00 0.00 90 1022.5
20260906040709 53 72 0.0 0.0 0.00 0.00 0.00 90 1022.7
20260906035735 53 72 0.0 0.0 0.00 0.00 0.00 90 1022.8
20260906034754 52 73 0.0 0.0 0.00 0.00 0.00 90 1022.9
20260906033807 52 72 0.0 0.0 0.00 0.00 0.00 89 1022.9
20260906032828 52 73 0.0 0.0 0.00 0.00 0.00 89 1023.0
20260906031820 52 73 0.0 0.0 0.00 0.00 0.00 89 1023.1
20260906030754 52 73 0.0 0.0 0.00 0.00 0.00 89 1023.2
20260906023503 52 73 0.0 0.0 0.00 0.00 0.00 89 1023.5
20260906022440 52 74 0.0 0.0 0.00 0.00 0.00 89 1023.7
20260906021432 52 74 0.0 0.0 0.00 0.00 0.00 88 1023.8
20260906020421 52 75 0.0 0.0 0.00 0.00 0.00 88 1023.8
20260906015421 52 75 0.0 0.0 0.00 0.00 0.00 88 1024.0
20260906014410 52 75 0.0 0.0 0.00 0.00 0.00 88 1024.1
20260906013356 53 75 0.0 0.0 0.00 0.00 0.00 88 1024.1
20260906012409 53 75 0.0 0.0 0.00 0.00 0.00 87 1024.3
20260906011413 53 75 0.0 0.0 0.00 0.00 0.00 88 1024.5
20260906010347 53 75 0.0 0.0 0.00 0.00 0.00 87 1024.7
20260906005356 53 75 0.0 0.0 0.00 0.00 0.00 87 1024.8
20260906004322 53 75 0.0 0.0 0.00 0.00 0.00 87 1024.8
20260906003331 53 75 0.0 0.0 0.00 0.00 0.00 86 1024.9
20260906002312 54 75 0.0 0.0 0.00 0.00 0.00 86 1025.0
20260905234954 55 75 0.0 0.0 0.00 0.00 0.00 84 1025.2
20260905233935 55 75 0.0 0.0 0.00 0.00 0.00 84 1025.2
20260905232958 55 75 0.0 0.0 0.00 0.00 0.00 85 1025.3
20260905232002 55 75 0.0 0.0 0.00 0.01 0.00 84 1025.3
20260905231026 55 75 0.0 0.0 0.00 0.01 0.00 84 1025.3
20260905230003 55 75 0.0 0.0 0.00 0.01 0.01 84 1025.3
20260905224931 55 75 0.0 0.0 0.00 0.01 0.01 84 1025.3
20260905223916 55 75 0.0 0.0 0.00 0.01 0.01 83 1025.3
20260905222903 55 75 0.0 0.0 0.00 0.01 0.01 84 1025.2
20260905221855 55 75 0.0 0.0 0.00 0.01 0.01 84 1025.2
20260905220857 55 75 0.0 0.0 0.00 0.01 0.01 83 1025.2
20260905213644 55 75 0.0 0.0 0.00 0.01 0.01 82 1025.2
20260905212703 55 75 0.0 0.0 0.00 0.01 0.01 82 1025.3
20260905210531 56 75 0.0 0.0 0.00 0.01 0.01 83 1025.3
20260905205514 55 75 0.0 0.0 0.00 0.01 0.01 82 1025.2
20260905204445 55 75 0.0 0.0 0.00 0.01 0.01 82 1025.4
20260905202249 56 75 0.0 0.0 0.00 0.01 0.01 81 1025.0
20260905201302 56 75 0.0 0.0 0.00 0.01 0.01 81 1024.9
20260905200311 56 75 0.0 0.0 0.00 0.01 0.01 80 1024.8
20260905194123 57 75 0.0 0.0 0.00 0.01 0.01 80 1024.5
20260905193048 57 75 0.0 0.0 0.00 0.01 0.01 79 1024.7
20260905192041 58 75 0.0 0.0 0.00 0.01 0.01 78 1024.8
20260905185854 59 75 0.0 0.0 0.00 0.01 0.01 76 1024.6
20260905184837 60 75 0.0 0.0 0.00 0.01 0.01 74 1024.5
20260905183848 60 75 0.0 0.0 0.00 0.01 0.01 73 1024.8
20260905182839 61 75 0.0 0.0 0.00 0.01 0.01 72 1024.6
20260905181820 62 75 0.0 0.0 0.00 0.01 0.01 69 1024.7
20260905180748 63 75 0.0 0.0 0.00 0.01 0.01 68 1024.6
20260905175809 64 255 0.0 0.0 0.00 0.01 0.01 66 1024.5
20260905174806 65 56 0.0 0.0 0.00 0.01 0.01 62 1024.5
20260905173800 65 272 0.0 3.0 0.00 0.01 0.01 64 1024.4
20260905172730 65 248 0.0 0.0 0.00 0.01 0.01 63 1024.5
20260905170622 65 283 0.0 0.0 0.00 0.01 0.01 63 1024.5
20260905163302 65 268 0.0 3.0 0.00 0.01 0.01 61 1024.2
20260905162319 66 225 0.0 4.0 0.00 0.01 0.01 60 1024.2
20260905161322 66 277 0.0 10.0 0.00 0.01 0.01 60 1024.3
20260905160256 66 281 1.0 10.0 0.00 0.01 0.01 58 1024.3
20260905154111 66 281 1.0 9.0 0.00 0.01 0.01 61 1024.2
20260905153046 66 269 0.0 7.0 0.00 0.01 0.01 61 1024.2
20260905152105 67 287 1.0 7.0 0.00 0.01 0.01 62 1024.3
20260905145926 68 217 1.0 7.0 0.00 0.01 0.01 58 1024.2